When you browse on this site, cookies collect data to enhance your experience and personalize the content and advertising you see.
Visit our Privacy Policy to learn more. By continuing to use the site, you agree to this use of cookies and data.
  • In Slovakia
  • List of Countries
  • For 7 days
  • Water Temperature
  • Satellite Maps
  • Weather Map
  • Weather Widgets
  • user-avatar
    Login

    Hourly Weather Zaranj

    Today, 20 November, Tuesday

    Time Temperature Precipitation Wind Pressure Humidity
    00:00 +18°C° 0 mm 1 mps 722 mmHg 33%
    01:00 +18°C° 0 mm 1 mps 722 mmHg 34%
    02:00 +18°C° 0 mm 1 mps 722 mmHg 34%
    03:00 +18°C° 0 mm 1 mps 722 mmHg 34%
    04:00 +16°C° 0 mm 2 mps 722 mmHg 35%
    05:00 +16°C° 0 mm 2 mps 722 mmHg 35%
    06:00 +16°C° 0 mm 2 mps 722 mmHg 35%
    07:00 +16°C° 0 mm 2 mps 723 mmHg 35%
    08:00 +18°C° 0 mm 2 mps 723 mmHg 32%
    09:00 +20°C° 0 mm 2 mps 723 mmHg 28%
    10:00 +22°C° 0 mm 3 mps 723 mmHg 24%
    11:00 +24°C° 0 mm 3 mps 723 mmHg 23%
    12:00 +25°C° 0 mm 3 mps 722 mmHg 22%
    13:00 +26°C° 0 mm 2 mps 722 mmHg 21%
    14:00 +26°C° 0 mm 2 mps 721 mmHg 21%
    15:00 +26°C° 0 mm 2 mps 721 mmHg 21%
    16:00 +26°C° 0 mm 2 mps 720 mmHg 22%
    17:00 +25°C° 0 mm 2 mps 720 mmHg 23%
    18:00 +25°C° 0 mm 2 mps 720 mmHg 24%
    19:00 +24°C° 0 mm 2 mps 720 mmHg 25%
    20:00 +22°C° 0 mm 3 mps 720 mmHg 27%
    21:00 +21°C° 0 mm 3 mps 719 mmHg 28%
    22:00 +21°C° 0 mm 3 mps 719 mmHg 30%
    23:00 +21°C° 0 mm 3 mps 719 mmHg 29%

    Tomorrow, 21 November, Wednesday

    Time Temperature Precipitation Wind Pressure Humidity
    00:00 +20°C° 0 mm 3 mps 718 mmHg 29%
    01:00 +20°C° 0 mm 3 mps 718 mmHg 29%
    02:00 +20°C° 0 mm 3 mps 718 mmHg 31%
    03:00 +19°C° 0 mm 3 mps 717 mmHg 32%
    04:00 +19°C° 0 mm 3 mps 717 mmHg 33%
    05:00 +19°C° 0.1 mm 2 mps 717 mmHg 35%
    06:00 +18°C° 0.1 mm 2 mps 717 mmHg 37%
    07:00 +18°C° 0.1 mm 2 mps 717 mmHg 39%
    08:00 +20°C° 0 mm 2 mps 718 mmHg 36%
    09:00 +21°C° 0 mm 3 mps 718 mmHg 33%
    10:00 +24°C° 0 mm 3 mps 719 mmHg 30%
    11:00 +25°C° 0 mm 3 mps 718 mmHg 28%
    12:00 +26°C° 0 mm 3 mps 718 mmHg 27%
    13:00 +27°C° 0 mm 2 mps 717 mmHg 25%
    14:00 +27°C° 0 mm 2 mps 717 mmHg 24%
    15:00 +27°C° 0 mm 2 mps 717 mmHg 24%
    16:00 +27°C° 0 mm 2 mps 717 mmHg 23%
    17:00 +26°C° 0 mm 2 mps 717 mmHg 25%
    18:00 +24°C° 0 mm 2 mps 718 mmHg 27%
    19:00 +23°C° 0 mm 2 mps 718 mmHg 29%
    20:00 +22°C° 0 mm 3 mps 719 mmHg 30%
    21:00 +21°C° 0 mm 3 mps 719 mmHg 30%
    22:00 +21°C° 0 mm 4 mps 719 mmHg 31%
    23:00 +20°C° 0 mm 4 mps 719 mmHg 34%

    Day after tomorrow, 22 November, Thursday

    Time Temperature Precipitation Wind Pressure Humidity
    00:00 +19°C° 0 mm 4 mps 719 mmHg 38%
    01:00 +19°C° 0 mm 4 mps 720 mmHg 41%
    02:00 +18°C° 0 mm 4 mps 720 mmHg 45%
    03:00 +18°C° 0 mm 3 mps 720 mmHg 48%
    04:00 +17°C° 0 mm 3 mps 720 mmHg 52%
    05:00 +17°C° 0 mm 3 mps 720 mmHg 53%
    06:00 +17°C° 0 mm 3 mps 720 mmHg 55%
    07:00 +16°C° 0 mm 3 mps 721 mmHg 56%
    08:00 +18°C° 0 mm 2 mps 721 mmHg 51%
    09:00 +19°C° 0 mm 2 mps 722 mmHg 46%
    10:00 +21°C° 0 mm 2 mps 722 mmHg 41%
    11:00 +23°C° 0 mm 2 mps 722 mmHg 37%
    12:00 +24°C° 0 mm 1 mps 721 mmHg 34%
    13:00 +25°C° 0 mm 1 mps 721 mmHg 30%
    14:00 +25°C° 0 mm 1 mps 721 mmHg 29%
    15:00 +25°C° 0 mm 1 mps 720 mmHg 28%
    16:00 +25°C° 0 mm 1 mps 720 mmHg 26%
    17:00 +24°C° 0 mm 1 mps 720 mmHg 28%
    18:00 +23°C° 0 mm 2 mps 721 mmHg 30%
    19:00 +21°C° 0 mm 2 mps 721 mmHg 32%
    20:00 +20°C° 0 mm 2 mps 721 mmHg 32%
    21:00 +20°C° 0 mm 2 mps 722 mmHg 33%
    22:00 +20°C° 0 mm 2 mps 722 mmHg 33%
    23:00 +19°C° 0 mm 2 mps 722 mmHg 34%

    23 November, Friday

    Time Temperature Precipitation Wind Pressure Humidity
    00:00 +19°C° 0 mm 2 mps 722 mmHg 34%
    01:00 +18°C° 0 mm 2 mps 721 mmHg 35%
    02:00 +18°C° 0 mm 2 mps 721 mmHg 35%
    03:00 +17°C° 0 mm 2 mps 721 mmHg 36%
    04:00 +17°C° 0 mm 2 mps 721 mmHg 36%
    05:00 +17°C° 0 mm 2 mps 721 mmHg 35%
    06:00 +17°C° 0 mm 2 mps 722 mmHg 35%
    07:00 +17°C° 0 mm 2 mps 722 mmHg 34%
    08:00 +19°C° 0 mm 3 mps 722 mmHg 32%
    09:00 +21°C° 0 mm 3 mps 723 mmHg 29%
    10:00 +24°C° 0 mm 3 mps 723 mmHg 26%
    11:00 +25°C° 0 mm 3 mps 722 mmHg 26%
    12:00 +26°C° 0 mm 3 mps 722 mmHg 25%
    13:00 +28°C° 0 mm 4 mps 721 mmHg 25%
    14:00 +28°C° 0 mm 3 mps 721 mmHg 24%
    15:00 +28°C° 0 mm 3 mps 721 mmHg 23%
    16:00 +28°C° 0 mm 2 mps 720 mmHg 22%
    17:00 +27°C° 0 mm 2 mps 721 mmHg 23%
    18:00 +26°C° 0 mm 2 mps 721 mmHg 25%
    19:00 +25°C° 0 mm 2 mps 721 mmHg 27%
    20:00 +24°C° 0 mm 2 mps 721 mmHg 28%
    21:00 +23°C° 0 mm 2 mps 721 mmHg 29%
    22:00 +23°C° 0 mm 2 mps 721 mmHg 29%
    23:00 +21°C° 0 mm 2 mps 721 mmHg 31%

    24 November, Saturday

    Time Temperature Precipitation Wind Pressure Humidity
    00:00 +21°C° 0 mm 3 mps 721 mmHg 32%
    01:00 +21°C° 0 mm 3 mps 721 mmHg 33%
    02:00 +20°C° 0 mm 2 mps 720 mmHg 34%
    03:00 +19°C° 0 mm 2 mps 720 mmHg 36%
    04:00 +19°C° 0 mm 2 mps 720 mmHg 38%
    05:00 +19°C° 0 mm 2 mps 721 mmHg 38%
    06:00 +19°C° 0 mm 2 mps 721 mmHg 38%
    07:00 +18°C° 0 mm 2 mps 722 mmHg 39%
    08:00 +20°C° 0 mm 2 mps 722 mmHg 34%
    09:00 +23°C° 0 mm 2 mps 723 mmHg 29%
    10:00 +25°C° 0 mm 2 mps 723 mmHg 25%
    11:00 +26°C° 0 mm 1 mps 722 mmHg 23%
    12:00 +27°C° 0 mm 1 mps 722 mmHg 21%
    13:00 +28°C° 0 mm 1 mps 721 mmHg 20%
    14:00 +28°C° 0 mm 1 mps 721 mmHg 20%
    15:00 +28°C° 0 mm 2 mps 721 mmHg 19%
    16:00 +28°C° 0 mm 2 mps 721 mmHg 19%
    17:00 +27°C° 0 mm 2 mps 722 mmHg 21%
    18:00 +26°C° 0 mm 3 mps 722 mmHg 23%
    19:00 +25°C° 0 mm 3 mps 723 mmHg 24%
    20:00 +22°C° 0 mm 5 mps 723 mmHg 30%
    21:00 +21°C° 0 mm 7 mps 723 mmHg 35%
    22:00 +19°C° 0 mm 9 mps 723 mmHg 40%
    23:00 +18°C° 0 mm 9 mps 723 mmHg 43%

    25 November, Sunday

    Time Temperature Precipitation Wind Pressure Humidity
    00:00 +17°C° 0 mm 9 mps 723 mmHg 46%
    01:00 +16°C° 0 mm 9 mps 723 mmHg 49%
    02:00 +16°C° 0 mm 9 mps 723 mmHg 50%
    03:00 +15°C° 0 mm 9 mps 723 mmHg 52%
    04:00 +15°C° 0 mm 8 mps 723 mmHg 54%
    05:00 +13°C° 0 mm 8 mps 724 mmHg 55%
    06:00 +14°C° 0 mm 7 mps 724 mmHg 56%
    07:00 +14°C° 0 mm 6 mps 724 mmHg 56%
    08:00 +15°C° 0 mm 6 mps 724 mmHg 51%
    09:00 +16°C° 0 mm 6 mps 724 mmHg 46%
    10:00 +19°C° 0 mm 6 mps 725 mmHg 41%
    11:00 +20°C° 0 mm 5 mps 724 mmHg 38%
    12:00 +21°C° 0 mm 5 mps 723 mmHg 34%
    13:00 +22°C° 0 mm 4 mps 722 mmHg 30%
    14:00 +23°C° 0 mm 4 mps 722 mmHg 30%
    15:00 +23°C° 0 mm 4 mps 721 mmHg 30%
    16:00 +24°C° 0 mm 3 mps 721 mmHg 30%
    17:00 +22°C° 0 mm 3 mps 722 mmHg 32%
    18:00 +21°C° 0 mm 3 mps 722 mmHg 35%
    19:00 +20°C° 0 mm 3 mps 722 mmHg 38%
    20:00 +19°C° 0 mm 2 mps 722 mmHg 39%
    21:00 +18°C° 0 mm 2 mps 722 mmHg 41%
    22:00 +19°C° 0 mm 1 mps 722 mmHg 43%
    23:00 +18°C° 0 mm 1 mps 721 mmHg 44%
    Show more